Other Public Products
Issued by NWS Grand Forks, ND

Home | Current Version | Previous Version | Text Only | Print | Product List | Glossary Off
Versions: 1 2 3 4 5 6 7 8 9 10 11 12 13 14 15 16 17 18 19 20 21 22 23 24 25 26 27 28 29 30 31 32 33 34 35 36 37 38 39 40 41 42 43 44 45 46 47 48 49 50

000
FPUS83 KFGF 031010
OPUFGF
PRAIRIE TO PINES WEATHER ROUNDUP
NATIONAL WEATHER SERVICE EASTERN NORTH DAKOTA/GRAND FORKS ND
400 AM CST TUE MAR 03 2015

 **SATELLITE DATA USED TO AUGMENT SKY COVER AT AUTOMATED STATIONS**
 *****  WEATHER ACROSS EASTERN NORTH DAKOTA  *****

CITY           SKY/WX    TMP DP  RH WIND       PRES   REMARKS
GRAND FORKS    CLOUDY    20  12  71 NW21G28   29.75S WCI   4
GRAND FORKS AF CLOUDY    19  11  72 NW18      29.76S WCI   3
GRAND CITY NWS   N/A     19 N/A N/A NW23        N/A  WCI   2
BUXTON         NOT AVBL
DEVILS LAKE    MOCLDY    14   5  67 NW18      29.80S WCI  -3
FARGO          CLOUDY    27  21  78 W10G17    29.73F WCI  17
WAHPETON ARPT  CLOUDY    27  23  86 SW8       29.74R WCI  18
$$

 *****  WEATHER ACROSS CENTRAL AND WESTERN NORTH DAKOTA  *****

CITY           SKY/WX    TMP DP  RH WIND       PRES   REMARKS
JAMESTOWN      CLOUDY    17  11  77 NW32G40   29.76F WCI  -3
BISMARCK       CLOUDY    14   5  67 NW28G37   29.89S WCI  -6
MINOT          FLURRIES   6  -2  69 NW26G32   29.91F WCI -16
MINOT AFB      CLEAR      5   0  79 NW28      29.90S WCI -18
GARRISON         N/A      8  -1  66 NW29G37   29.90F WCI -15
WILLISTON      PTCLDY     5  -3  69 NW13      30.05R WCI -12
DICKINSON      CLOUDY    10  -1  61 NW25G36   29.92R WCI -11
HETTINGER      CLOUDY    14   7  73 NW23G35   29.89R WCI  -5
$$

 *****  OTHER OBSERVATIONS NORTHEAST NORTH DAKOTA  *****

CITY           SKY/WX    TMP DP  RH WIND       PRES   REMARKS
WALHALLA       FLURRIES  16  14  93 NW20G25   29.78S WCI  -1
LANGDON        NOT AVBL
CAVALIER       FAIR      18  12  79 NW16      29.76S WCI   3
GRAFTON        NOT AVBL
CANDO          FAIR      10   5  79 NW18      29.81F WCI  -8
FORT TOTTEN    NOT AVBL
ROLLA          CLOUDY     7   1  78 NW30G40   29.80F WCI -17
RUGBY          FAIR       9   1  72 NW25G38   29.85F WCI -13
 ***** THE ABOVE OBSERVATIONS ARE NON NWS ARE NOT QUALITY
        CONTROLLED AND MAY MIS-REPORT RAIN FOR SNOW...
$$

 *****  OTHER OBSERVATIONS SOUTHEAST NORTH DAKOTA *****

CITY           SKY/WX    TMP DP  RH WIND       PRES   REMARKS
COOPERSTOWN    NOT AVBL
VALLEY CITY    FLURRIES  19  18  93 NW22G31   29.75S WCI   3
OAKES            N/A     19  18  93 NW25G32   29.73F WCI   2
GWINNER          N/A     27  23  86 N23G30    29.73F WCI  12
SHEYENNE NWR     N/A     25  19  78 NW12      29.95S WCI  14
BUFFALO        NOT AVBL
WYNDMERE         N/A     25  25 100 NW3         N/A
 ***** THE ABOVE OBSERVATIONS ARE NON NWS ARE NOT QUALITY
       CONTROLLED AND MAY MIS-REPORT RAIN FOR SNOW...
$$

  *****  WEATHER ACROSS NORTHERN MINNESOTA  *****

CITY           SKY/WX    TMP DP  RH WIND       PRES   REMARKS
FLAG ISLAND    CLOUDY    25  18  74 SW15      29.62S WCI  12
WARROAD        CLOUDY    25  19  80 W13G22    29.66R WCI  13
ROSEAU         CLOUDY    25  18  74 W15       29.67R WCI  12
HALLOCK        CLOUDY    19  14  79 N22G29    29.74S WCI   3
THF RVR FALLS  CLOUDY    25  19  80 W13       29.70F WCI  13
HALSTAD        NOT AVBL
FOSSTON        CLOUDY    25  19  80 SW15      29.70F WCI  12
BAUDETTE       CLOUDY    23  16  74 SW9       29.65S WCI  13
WASKISH        CLOUDY    27  19  74 S8        29.68R WCI  18
CROOKSTON      CLOUDY    23  18  80 NW14      29.75R WCI  11
$$
  *****  WEATHER ACROSS CENTRAL AND WEST MINNESOTA  *****

CITY           SKY/WX    TMP DP  RH WIND       PRES   REMARKS
BEMIDJI        CLOUDY    24  19  81 SW12G18   29.69R WCI  13
PARK RAPIDS    CLOUDY    24  18  77 S14G20    29.71F WCI  12
WADENA         LGT SNOW  21  19  93 S10       29.72F WCI  10
DETROIT LAKES  LGT SNOW  27  23  86 SW7       29.72S WCI  19
MOORHEAD       CLOUDY    27  25  93 SW8       29.74F WCI  18
FERGUS FALLS   LGT SNOW  25  21  86 S12       29.76F WCI  14
ELBOW LAKE     LGT SNOW  23  22  96 S21       29.72F VSB 3/4 WCI   7
MORRIS MN      LGT SNOW  23  21  93 S14       29.73F VSB 3/4 WCI  11
STAPLES        LGT SNOW  19  19 100 S14       29.74F VSB 1   WCI   6
WHEATON        LGT SNOW  23  21  93 SE14      29.73F VSB 3/4 WCI  11
$$
  *****  WEATHER ELSEWHERE ACROSS MINNESOTA  *****

CITY           SKY/WX    TMP DP  RH WIND       PRES   REMARKS
DULUTH         LGT SNOW  19  14  81 S12       29.76F WCI   7
INTRNTL FALLS  CLOUDY    23  12  62 S7        29.66F WCI  15
ELY            CLOUDY    21   7  53 S15G21    29.72F WCI   8
CLOQUET        LGT SNOW  19  16  86 S6        29.78F WCI  11
BRAINERD       LGT SNOW  20  17  88 S12       29.77S VSB 3/4 WCI   8
HIBBING        LGT SNOW  20   9  62 S8        29.74F WCI  10
ALEXANDRIA     LGT SNOW  22  19  89 S14       29.73F VSB 3/4 WCI   9
SAINT CLOUD    CLOUDY    21  14  74 S8        29.79F WCI  11
MINNEAPOLIS    CLOUDY    22  12  65 SE9       29.83F WCI  12
$$

  *****  WEATHER ACROSS SOUTH DAKOTA  *****

CITY           SKY/WX    TMP DP  RH WIND       PRES   REMARKS
SIOUX FALLS    CLOUDY    25  19  78 S9        29.67F WCI  15
BROOKINGS      NOT AVBL
WATERTOWN      LGT SNOW  24  21  88 S7        29.67F FOG     WCI  16
HURON          LGT SNOW  28  21  75 SE3       29.66F
SISSETON         N/A     27  26  96 S9        29.68F WCI  18
ABERDEEN       LGT SNOW  27  25  92 N13       29.71S VSB 3/4 WCI  16
MITCHELL       CLOUDY    28  20  71 MISG      29.67F
PIERRE         FOG       22  20  92 N35G45    29.69R VSB 1/2 WCI   3
MOBRIDGE       CLOUDY    20  12  71 N23G35    29.77S WCI   3
RAPID CITY     FOG       17  14  88 NW35G44   29.80R VSB 3/4 WCI  -4
$$

  *****  SOME WEATHER IN NEARBY STATES *****

CITY           SKY/WX    TMP DP  RH WIND       PRES   REMARKS
GLASGOW MT     PTCLDY     7  -4  60 NW14G24   30.14R WCI -10
GREAT FALLS MT CLOUDY     4  -1  80 N8        30.20R WCI  -9
CHEYENNE WY    MOCLDY    28  23  81 N23G31    29.60R WCI  14
SCOTTSBLUFF NE LGT SNOW  30  27  88 N13       29.67R FOG     WCI  20
OMAHA NE       CLOUDY    32  26  78 S15       29.72F WCI  22
DES MOINES IA  FRZ DRZL  30  23  75 S13       29.79F WCI  20
DAVENPORT IA   FRZ RAIN  27  22  81 SE16      29.95F WCI  15
CHICAGO IL     CLOUDY    26  17  68 S10       30.05F WCI  16
EAU CLAIRE WI  CLOUDY    22  13  68 SE8       29.88F WCI  12
LA CROSSE WI   CLOUDY    26  17  68 SE12      29.91F WCI  16
$$

  *****  SOME NATIONAL WEATHER *****

CITY           SKY/WX    TMP DP  RH WIND       PRES   REMARKS
LA GUARDIA NY  PTCLDY    25  10  53 NW9       30.41R WCI  15
RALEIGH NC     CLOUDY    40  26  57 E12       30.35S
ATLANTA GA     CLOUDY    54  46  74 CALM      30.20R
NEW ORLEANS LA FOG       65  64  97 S3        30.12S VSB 1/2
OKLAHOMA CITY  CLOUDY    39  36  89 S20G29    29.93S FOG
ALBUQUERQUE NM CLOUDY    43  28  55 W14       29.93F
SALT LAKE CITY CLOUDY    34  32  92 SE8       29.77S
LOS ANGELES CA MOCLDY    51  47  86 NE3       29.96F
BOISE ID       CLOUDY    34  24  67 NW10      29.89R
SEATTLE WA     CLEAR     36  30  79 SE6       30.17S
$$

*** WEATHER ACROSS MANITOBA...SASKATCHEWAN AND ONTARIO ***
                ***ONTARIO***

CITY           SKY/WX    TMP DP  RH WIND       PRES   REMARKS
GERALDTON      CLOUDY    12   9  85 S7        29.79F WCI   2
THUNDER BAY    CLOUDY    12   9  85 VRB3      29.83F
SIOUX LOOKOUT  FLURRIES  21   9  58 S10G20    29.59F WCI  10
TORONTO        MOCLDY    10   5  79 N2        30.33S
BIG TROUT LK   LGT SNOW  10   7  85 S7        29.53F WCI   0
PICKLE LAKE    NOT AVBL
DRYDEN         CLOUDY    21  12  68 S13G20    29.58F WCI   9
KENORA         FLURRIES  21  16  79 SW14      29.59F WCI   8
$$
                *** MANITOBA***

CITY           SKY/WX    TMP DP  RH WIND       PRES   REMARKS
BRANDON        CLEAR      5  -2  72 NW26      29.85S WCI -18
DAUPHIN        FLURRIES   9   0  66 NW16G22   29.85S WCI  -9
ISLAND LAKE    NOT AVBL
PILOT MOUND      N/A      9   3  78 NW23        N/A  WCI -12
THE PAS        CLEAR     -4 -13  65 NW20G28   29.88R WCI -27
THOMPSON       FLURRIES  -6 -15  65 NW14G23   29.71R WCI -26
WINNIPEG       PTCLDY    10   5  79 NW24G30   29.76R WCI -10
LYNN LAKE      PTCLDY   -15 -24  64 NW13G26   29.82S WCI -37
CHURCHILL      CLOUDY    -8 -13  77 NE17      29.84R WCI -31
GILLAM         SNOW       0  -6  78 N16       29.56R VSB 1/4 WCI -21
$$
                ***SASKATCHEWAN***

CITY           SKY/WX    TMP DP  RH WIND       PRES   REMARKS
ESTEVAN        PTCLDY     0  -8  71 NW20G26   29.97S WCI -22
KINDERSLEY     PTCLDY    -4 -11  71 NW10      30.18S WCI -21
LLOYDMINSTER   CLEAR     -6 -13  71 NW10      30.16F WCI -23
PRINCE ALBERT  FLURRIES  -8 -17  65 NW10      30.09R WCI -26
REGINA         PTCLDY    -4  -9  77 NW17G24   30.04F WCI -26


USA.gov is the U.S. government's official web portal to all federal, state and local government web resources and services.